• In India
  • List of Countries
  • For 7 days
  • Water Temperature
  • Satellite Maps
  • Weather Map
  • Weather Widgets
  • user-avatar
    Login

    Hourly Weather Ligotka

    Today, 19 February, Tuesday

    Time Temperature Precipitation Wind Pressure Humidity
    00:00 +5°C° 0 mm 2 mps 754 mmHg 69%
    01:00 +4°C° 0 mm 2 mps 754 mmHg 69%
    02:00 +4°C° 0 mm 2 mps 753 mmHg 70%
    03:00 +4°C° 0 mm 2 mps 753 mmHg 70%
    04:00 +4°C° 0 mm 2 mps 753 mmHg 71%
    05:00 +3°C° 0 mm 2 mps 753 mmHg 71%
    06:00 +3°C° 0 mm 2 mps 753 mmHg 72%
    07:00 +2°C° 0 mm 2 mps 752 mmHg 70%
    08:00 +3°C° 0 mm 3 mps 752 mmHg 65%
    09:00 +5°C° 0 mm 3 mps 752 mmHg 60%
    10:00 +7°C° 0 mm 4 mps 752 mmHg 55%
    11:00 +8°C° 0 mm 4 mps 752 mmHg 54%
    12:00 +10°C° 0 mm 5 mps 752 mmHg 52%
    13:00 +12°C° 0 mm 5 mps 752 mmHg 51%
    14:00 +12°C° 0 mm 5 mps 752 mmHg 55%
    15:00 +10°C° 0 mm 5 mps 752 mmHg 59%
    16:00 +10°C° 0 mm 5 mps 752 mmHg 63%
    17:00 +10°C° 0 mm 4 mps 752 mmHg 68%
    18:00 +8°C° 0 mm 4 mps 752 mmHg 73%
    19:00 +7°C° 0 mm 4 mps 752 mmHg 77%
    20:00 +7°C° 0 mm 4 mps 752 mmHg 79%
    21:00 +6°C° 0 mm 4 mps 753 mmHg 81%
    22:00 +5°C° 0 mm 4 mps 753 mmHg 83%
    23:00 +5°C° 0 mm 4 mps 753 mmHg 81%

    Tomorrow, 20 February, Wednesday

    Time Temperature Precipitation Wind Pressure Humidity
    00:00 +5°C° 0 mm 4 mps 753 mmHg 80%
    01:00 +3°C° 0 mm 5 mps 753 mmHg 79%
    02:00 +3°C° 0 mm 5 mps 754 mmHg 80%
    03:00 +3°C° 0 mm 5 mps 754 mmHg 81%
    04:00 +3°C° 0 mm 5 mps 754 mmHg 81%
    05:00 +3°C° 0 mm 5 mps 754 mmHg 83%
    06:00 +2°C° 0 mm 5 mps 754 mmHg 85%
    07:00 +2°C° 0 mm 5 mps 754 mmHg 87%
    08:00 +2°C° 0 mm 5 mps 755 mmHg 84%
    09:00 +3°C° 0 mm 5 mps 755 mmHg 81%
    10:00 +3°C° 0 mm 5 mps 756 mmHg 78%
    11:00 +4°C° 0 mm 6 mps 756 mmHg 74%
    12:00 +5°C° 0 mm 6 mps 756 mmHg 70%
    13:00 +7°C° 0 mm 6 mps 756 mmHg 65%
    14:00 +7°C° 0 mm 6 mps 756 mmHg 66%
    15:00 +7°C° 0 mm 5 mps 756 mmHg 66%
    16:00 +7°C° 0 mm 5 mps 756 mmHg 66%
    17:00 +6°C° 0 mm 4 mps 757 mmHg 70%
    18:00 +7°C° 0 mm 3 mps 757 mmHg 73%
    19:00 +6°C° 0 mm 2 mps 758 mmHg 77%
    20:00 +5°C° 0.1 mm 3 mps 758 mmHg 78%
    21:00 +5°C° 0.1 mm 3 mps 758 mmHg 79%
    22:00 +5°C° 0.1 mm 3 mps 758 mmHg 81%
    23:00 +5°C° 0 mm 3 mps 758 mmHg 80%

    Day after tomorrow, 21 February, Thursday

    Time Temperature Precipitation Wind Pressure Humidity
    00:00 +5°C° 0 mm 3 mps 759 mmHg 80%
    01:00 +5°C° 0 mm 3 mps 759 mmHg 80%
    02:00 +5°C° 0 mm 3 mps 758 mmHg 80%
    03:00 +4°C° 0 mm 4 mps 758 mmHg 79%
    04:00 +4°C° 0 mm 4 mps 758 mmHg 79%
    05:00 +4°C° 0.1 mm 4 mps 758 mmHg 79%
    06:00 +4°C° 0.1 mm 4 mps 758 mmHg 80%
    07:00 +4°C° 0.1 mm 4 mps 758 mmHg 80%
    08:00 +5°C° 0.2 mm 5 mps 758 mmHg 80%
    09:00 +5°C° 0.2 mm 5 mps 758 mmHg 79%
    10:00 +5°C° 0.2 mm 6 mps 758 mmHg 78%
    11:00 +7°C° 0.1 mm 6 mps 758 mmHg 75%
    12:00 +7°C° 0.1 mm 6 mps 758 mmHg 72%
    13:00 +8°C° 0.1 mm 6 mps 757 mmHg 69%
    14:00 +8°C° 0.1 mm 6 mps 757 mmHg 69%
    15:00 +8°C° 0.1 mm 5 mps 757 mmHg 70%
    16:00 +8°C° 0.1 mm 5 mps 757 mmHg 71%
    17:00 +7°C° 1.6 mm 5 mps 757 mmHg 77%
    18:00 +7°C° 1.6 mm 6 mps 757 mmHg 82%
    19:00 +5°C° 1.6 mm 6 mps 757 mmHg 88%
    20:00 +5°C° 0.4 mm 6 mps 757 mmHg 88%
    21:00 +5°C° 0.4 mm 6 mps 757 mmHg 88%
    22:00 +7°C° 0.4 mm 6 mps 757 mmHg 88%
    23:00 +7°C° 0.5 mm 6 mps 757 mmHg 89%

    22 February, Friday

    Time Temperature Precipitation Wind Pressure Humidity
    00:00 +7°C° 0.5 mm 6 mps 757 mmHg 90%
    01:00 +7°C° 0.5 mm 6 mps 757 mmHg 90%
    02:00 +5°C° 0.2 mm 6 mps 758 mmHg 89%
    03:00 +5°C° 0.2 mm 6 mps 758 mmHg 88%
    04:00 +5°C° 0.2 mm 6 mps 759 mmHg 86%
    05:00 +4°C° 0 mm 6 mps 760 mmHg 85%
    06:00 +2°C° 0 mm 6 mps 761 mmHg 83%
    07:00 +1°C° 0 mm 6 mps 762 mmHg 81%
    08:00 +1°C° 0 mm 6 mps 763 mmHg 76%
    09:00 0°C° 0 mm 5 mps 764 mmHg 71%
    10:00 0°C° 0 mm 5 mps 765 mmHg 66%
    11:00 +1°C° 0 mm 4 mps 766 mmHg 62%
    12:00 +1°C° 0 mm 4 mps 766 mmHg 57%
    13:00 +1°C° 0 mm 4 mps 767 mmHg 53%
    14:00 +1°C° 0 mm 4 mps 767 mmHg 53%
    15:00 +1°C° 0 mm 4 mps 768 mmHg 52%
    16:00 +1°C° 0 mm 4 mps 768 mmHg 52%
    17:00 +1°C° 0 mm 3 mps 769 mmHg 56%
    18:00 0°C° 0 mm 3 mps 769 mmHg 59%
    19:00 -1°C° 0 mm 2 mps 770 mmHg 62%
    20:00 -1°C° 0 mm 2 mps 770 mmHg 61%
    21:00 -2°C° 0 mm 2 mps 770 mmHg 60%
    22:00 -2°C° 0 mm 2 mps 771 mmHg 60%
    23:00 -2°C° 0 mm 2 mps 771 mmHg 58%

    23 February, Saturday

    Time Temperature Precipitation Wind Pressure Humidity
    00:00 0°C° 0 mm 1 mps 771 mmHg 57%
    01:00 0°C° 0 mm 1 mps 771 mmHg 55%
    02:00 0°C° 0 mm 1 mps 771 mmHg 55%
    03:00 0°C° 0 mm 1 mps 771 mmHg 56%
    04:00 -1°C° 0 mm 0 mps 770 mmHg 56%
    05:00 -1°C° 0 mm 0 mps 770 mmHg 56%
    06:00 -2°C° 0 mm 0 mps 770 mmHg 57%
    07:00 -2°C° 0 mm 0 mps 770 mmHg 57%
    08:00 -1°C° 0 mm 0 mps 770 mmHg 52%
    09:00 0°C° 0 mm 0 mps 770 mmHg 46%
    10:00 +1°C° 0 mm 0 mps 770 mmHg 41%
    11:00 +2°C° 0 mm 0 mps 770 mmHg 38%
    12:00 +2°C° 0 mm 0 mps 769 mmHg 35%
    13:00 +3°C° 0 mm 0 mps 769 mmHg 32%
    14:00 +3°C° 0 mm 0 mps 769 mmHg 34%
    15:00 +3°C° 0 mm 0 mps 768 mmHg 36%
    16:00 +3°C° 0 mm 0 mps 768 mmHg 38%
    17:00 +3°C° 0 mm 1 mps 768 mmHg 41%
    18:00 +3°C° 0 mm 1 mps 768 mmHg 43%
    19:00 +3°C° 0 mm 1 mps 768 mmHg 45%
    20:00 +2°C° 0 mm 1 mps 768 mmHg 46%
    21:00 +1°C° 0 mm 0 mps 768 mmHg 47%
    22:00 +1°C° 0 mm 0 mps 768 mmHg 47%
    23:00 +1°C° 0 mm 0 mps 768 mmHg 48%

    24 February, Sunday

    Time Temperature Precipitation Wind Pressure Humidity
    00:00 0°C° 0 mm 0 mps 768 mmHg 48%
    01:00 0°C° 0 mm 0 mps 768 mmHg 48%
    02:00 0°C° 0 mm 0 mps 768 mmHg 49%
    03:00 0°C° 0 mm 0 mps 768 mmHg 50%
    04:00 -1°C° 0 mm 0 mps 768 mmHg 51%
    05:00 -1°C° 0 mm 0 mps 769 mmHg 51%
    06:00 -1°C° 0 mm 0 mps 769 mmHg 51%
    07:00 -1°C° 0 mm 0 mps 769 mmHg 52%
    08:00 +1°C° 0 mm 1 mps 769 mmHg 49%
    09:00 +3°C° 0 mm 1 mps 770 mmHg 47%
    10:00 +4°C° 0 mm 1 mps 770 mmHg 44%
    11:00 +4°C° 0 mm 1 mps 770 mmHg 46%
    12:00 +5°C° 0 mm 1 mps 770 mmHg 47%
    13:00 +6°C° 0 mm 1 mps 769 mmHg 49%
    14:00 +6°C° 0 mm 1 mps 769 mmHg 51%
    15:00 +6°C° 0 mm 1 mps 769 mmHg 52%
    16:00 +5°C° 0 mm 0 mps 769 mmHg 54%
    17:00 +4°C° 0 mm 0 mps 769 mmHg 59%
    18:00 +4°C° 0 mm 1 mps 769 mmHg 63%
    19:00 +3°C° 0 mm 1 mps 769 mmHg 67%
    20:00 +3°C° 0 mm 1 mps 769 mmHg 69%
    21:00 +2°C° 0 mm 1 mps 770 mmHg 70%
    22:00 +2°C° 0 mm 1 mps 770 mmHg 72%
    23:00 +2°C° 0 mm 1 mps 770 mmHg 72%
    Show more